| time (UTC) | temp F | wind direction | speed knots | gust knots | rain 1hr in | rain 24hr in | rain mn in | humidity % | barometer mb |
| 20260506024557 | 51 | 19 | 3.5 | 8.7 | 0.00 | 0.02 | 0.00 | 77 | 1012.2 |
| 20260506023054 | 51 | 11 | 3.5 | 11.3 | 0.00 | 0.02 | 0.00 | 77 | 1012.1 |
| 20260506021551 | 51 | 26 | 4.3 | 12.2 | 0.00 | 0.02 | 0.00 | 77 | 1011.7 |
| 20260506020047 | 51 | 38 | 4.3 | 13.0 | 0.00 | 0.02 | 0.00 | 76 | 1011.2 |
| 20260506014546 | 51 | 48 | 4.3 | 16.5 | 0.00 | 0.02 | 0.00 | 76 | 1011.1 |
| 20260506013045 | 51 | 28 | 7.0 | 14.8 | 0.00 | 0.02 | 0.00 | 76 | 1010.6 |
| 20260506011539 | 51 | 40 | 6.1 | 15.6 | 0.00 | 0.02 | 0.00 | 76 | 1010.3 |
| 20260506010037 | 51 | 355 | 5.2 | 10.4 | 0.00 | 0.02 | 0.00 | 77 | 1010.3 |
| 20260506004501 | 51 | 30 | 6.1 | 11.3 | 0.00 | 0.02 | 0.00 | 76 | 1010.1 |
| 20260506003100 | 51 | 71 | 4.3 | 13.0 | 0.00 | 0.02 | 0.00 | 76 | 1010.3 |
| 20260506001559 | 52 | 25 | 6.1 | 15.6 | 0.00 | 0.02 | 0.00 | 75 | 1009.8 |
| 20260506000026 | 52 | 5 | 3.5 | 13.9 | 0.00 | 0.02 | 0.00 | 75 | 1010.0 |
| 20260505234619 | 52 | 34 | 5.2 | 15.6 | 0.00 | 0.02 | 0.00 | 75 | 1010.0 |
| 20260505233023 | 53 | 9 | 6.1 | 13.9 | 0.00 | 0.02 | 0.00 | 74 | 1009.8 |
| 20260505231513 | 53 | 40 | 4.3 | 13.0 | 0.00 | 0.02 | 0.00 | 73 | 1009.6 |
| 20260505230001 | 53 | 30 | 6.1 | 16.5 | 0.00 | 0.02 | 0.00 | 72 | 1009.4 |
| 20260505224541 | 53 | 84 | 7.0 | 13.9 | 0.00 | 0.02 | 0.00 | 71 | 1008.9 |
| 20260505223001 | 54 | 34 | 8.7 | 15.6 | 0.00 | 0.02 | 0.00 | 71 | 1008.9 |
| 20260505221606 | 54 | 46 | 4.3 | 10.4 | 0.00 | 0.02 | 0.00 | 72 | 1008.3 |
| 20260505220015 | 54 | 11 | 6.1 | 11.3 | 0.00 | 0.02 | 0.00 | 71 | 1008.6 |
| 20260505214619 | 55 | 61 | 5.2 | 13.9 | 0.00 | 0.02 | 0.00 | 71 | 1008.5 |
| 20260505213027 | 55 | 42 | 6.1 | 13.0 | 0.00 | 0.02 | 0.00 | 71 | 1008.2 |
| 20260505211524 | 55 | 9 | 7.0 | 18.2 | 0.00 | 0.02 | 0.00 | 71 | 1008.4 |
| 20260505210023 | 55 | 360 | 7.8 | 16.5 | 0.00 | 0.02 | 0.00 | 72 | 1008.0 |
| 20260505204525 | 55 | 25 | 7.8 | 15.6 | 0.00 | 0.02 | 0.00 | 72 | 1008.2 |
| 20260505203023 | 55 | 46 | 6.1 | 13.0 | 0.00 | 0.02 | 0.00 | 73 | 1008.0 |
| 20260505201508 | 55 | 355 | 7.0 | 13.9 | 0.00 | 0.02 | 0.00 | 74 | 1007.9 |
| 20260505200025 | 55 | 349 | 4.3 | 13.9 | 0.00 | 0.02 | 0.00 | 75 | 1008.0 |
| 20260505194519 | 55 | 9 | 6.1 | 16.5 | 0.00 | 0.02 | 0.00 | 76 | 1008.2 |
| 20260505193017 | 56 | 5 | 7.8 | 14.8 | 0.00 | 0.02 | 0.00 | 75 | 1007.8 |
| 20260505191517 | 56 | 25 | 3.5 | 14.8 | 0.00 | 0.02 | 0.00 | 77 | 1007.4 |
| 20260505190014 | 56 | 23 | 2.6 | 12.2 | 0.00 | 0.02 | 0.00 | 77 | 1007.2 |
| 20260505184522 | 56 | 59 | 7.8 | 16.5 | 0.00 | 0.02 | 0.00 | 77 | 1007.2 |
| 20260505183031 | 56 | 21 | 5.2 | 12.2 | 0.00 | 0.02 | 0.00 | 79 | 1007.0 |
| 20260505181509 | 55 | 36 | 4.3 | 13.0 | 0.00 | 0.02 | 0.00 | 80 | 1007.3 |
| 20260505180006 | 55 | 38 | 7.8 | 17.4 | 0.00 | 0.02 | 0.00 | 80 | 1006.7 |
| 20260505174504 | 56 | 355 | 5.2 | 14.8 | 0.00 | 0.02 | 0.00 | 81 | 1006.7 |
| 20260505173004 | 56 | 48 | 6.1 | 18.2 | 0.00 | 0.02 | 0.00 | 82 | 1006.4 |
| 20260505171558 | 56 | 36 | 7.8 | 14.8 | 0.00 | 0.02 | 0.00 | 82 | 1006.1 |
| 20260505170100 | 56 | 24 | 7.0 | 15.6 | 0.00 | 0.02 | 0.00 | 84 | 1005.6 |
| 20260505164616 | 56 | 62 | 7.0 | 19.1 | 0.00 | 0.02 | 0.00 | 83 | 1005.6 |
| 20260505163036 | 56 | 346 | 5.2 | 13.9 | 0.00 | 0.02 | 0.00 | 84 | 1005.2 |
| 20260505161627 | 56 | 57 | 7.8 | 15.6 | 0.00 | 0.02 | 0.00 | 84 | 1005.4 |
| 20260505153008 | 58 | 350 | 7.8 | 17.4 | 0.00 | 0.02 | 0.00 | 83 | 1004.5 |
| 20260505151503 | 60 | 29 | 7.0 | 16.5 | 0.00 | 0.02 | 0.00 | 83 | 1004.5 |
| 20260505124545 | 66 | 99 | 0.9 | 7.8 | 0.00 | 0.02 | 0.00 | 82 | 1003.1 |
| 20260505123039 | 66 | 55 | 1.7 | 6.1 | 0.00 | 0.02 | 0.00 | 82 | 1002.9 |
| 20260505121541 | 66 | 133 | 3.5 | 8.7 | 0.00 | 0.02 | 0.00 | 82 | 1002.4 |
| 20260505120046 | 66 | 141 | 3.5 | 10.4 | 0.00 | 0.02 | 0.00 | 82 | 1002.4 |
| 20260505114534 | 66 | 114 | 1.7 | 8.7 | 0.00 | 0.02 | 0.00 | 82 | 1002.3 |
| 20260505113034 | 66 | 182 | 1.7 | 5.2 | 0.00 | 0.02 | 0.00 | 82 | 1002.2 |
| 20260505111532 | 66 | 150 | 1.7 | 5.2 | 0.00 | 0.02 | 0.00 | 83 | 1002.3 |
| 20260505101536 | 65 | 66 | 0.9 | 4.3 | 0.00 | 0.02 | 0.00 | 84 | 1001.6 |
| 20260505100030 | 65 | 165 | 2.6 | 7.0 | 0.00 | 0.02 | 0.00 | 85 | 1001.5 |
| 20260505094531 | 64 | 142 | 2.6 | 5.2 | 0.00 | 0.02 | 0.00 | 85 | 1001.5 |
| 20260505093028 | 64 | 140 | 2.6 | 7.0 | 0.00 | 0.02 | 0.00 | 85 | 1001.5 |
| 20260505091527 | 64 | 157 | 1.7 | 7.8 | 0.00 | 0.02 | 0.00 | 84 | 1001.6 |
| 20260505090025 | 65 | 157 | 1.7 | 7.8 | 0.00 | 0.02 | 0.00 | 83 | 1001.6 |
| 20260505084533 | 65 | 178 | 2.6 | 7.8 | 0.00 | 0.02 | 0.00 | 83 | 1001.4 |
| 20260505083020 | 65 | 150 | 1.7 | 7.0 | 0.00 | 0.02 | 0.00 | 82 | 1001.5 |
| 20260505081518 | 66 | 175 | 2.6 | 7.0 | 0.00 | 0.02 | 0.00 | 80 | 1001.5 |
| 20260505080015 | 66 | 111 | 0.9 | 6.1 | 0.00 | 0.02 | 0.00 | 79 | 1001.7 |
| 20260505074614 | 67 | 162 | 1.7 | 7.8 | 0.00 | 0.02 | 0.00 | 78 | 1001.8 |
| 20260505073015 | 68 | 86 | 0.9 | 6.1 | 0.00 | 0.02 | 0.00 | 79 | 1002.1 |
| 20260505071512 | 68 | 92 | 1.7 | 7.8 | 0.00 | 0.02 | 0.00 | 79 | 1002.4 |
| 20260505070015 | 67 | 116 | 1.7 | 5.2 | 0.00 | 0.02 | 0.00 | 79 | 1002.5 |
| 20260505064510 | 67 | 33 | 1.7 | 4.3 | 0.00 | 0.02 | 0.00 | 80 | 1002.7 |
| 20260505063011 | 67 | 28 | 3.5 | 8.7 | 0.00 | 0.02 | 0.00 | 81 | 1003.1 |
| 20260505061508 | 67 | 19 | 3.5 | 7.8 | 0.00 | 0.02 | 0.00 | 81 | 1003.2 |
| 20260505060006 | 67 | 21 | 2.6 | 5.2 | 0.00 | 0.02 | 0.00 | 80 | 1003.2 |
| 20260505054505 | 67 | 16 | 2.6 | 4.3 | 0.00 | 0.02 | 0.00 | 81 | 1003.1 |
| 20260505053001 | 67 | 139 | 0.0 | 1.7 | 0.00 | 0.02 | 0.00 | 79 | 1002.6 |
| 20260505051558 | 67 | 138 | 2.6 | 7.8 | 0.00 | 0.02 | 0.00 | 78 | 1002.1 |
| 20260505041557 | 67 | 147 | 4.3 | 8.7 | 0.02 | 0.02 | 0.02 | 79 | 1001.8 |
| 20260505040055 | 67 | 168 | 4.3 | 12.2 | 0.02 | 0.02 | 0.02 | 79 | 1002.1 |
| 20260505034549 | 69 | 196 | 4.3 | 9.6 | 0.01 | 0.01 | 0.01 | 75 | 1002.0 |
| 20260505033045 | 71 | 116 | 4.3 | 9.6 | 0.00 | 0.00 | 0.00 | 68 | 1002.4 |
| 20260505031553 | 71 | 209 | 3.5 | 7.8 | 0.00 | 0.00 | 0.00 | 67 | 1002.6 |
| 20260505030043 | 71 | 140 | 4.3 | 7.8 | 0.00 | 0.00 | 0.00 | 67 | 1002.9 |